Current weather by "City, St" or "zip code"  
 

Current Conditions: Winchester Municipal Airport, TN

Overcast


50.0 F

Last Updated on Oct 29 2020, 7:55 pm CDT
Humidity: 82%
Wind Speed: W 12.7 G 20.7 mph
Barometer 29.84 in
Dewpoint: 44.6 F
Visibility: 10.00 mi
Precip: --
Heat Index: NA
Wind Chill: 45 F
Current conditions at:

Winchester Municipal Airport, TN (KBGF)

Lat: 35.1775 Lon: 86.0662

Local Radar Image active severe weather and emergency alerts image image weather storm and storm spotter reports image weather observation monitoring service image
Local
Radar
Active
Alerts
Storm Reports Obs
Monitoring

Sign-up For Email & Text Message Weather Alert Notification Services



Advertise Here

Observation History for Winchester Municipal Airport, TN


Time Wind
(mph)
Vis
(mi)
Weather Precip (in) Temperature (F) Relative
Humidity
Wind
Chill
(F)
Heat
Index
(F)
Pressure
Air Dwpt altimeter
(in)
sea level
(mb)
Rmks
7:55 pm CDT W 12.7 G 20.7 10.00 Overcast -- 50.0 44.6 82% 45 NA 29.84 M
6:55 pm CDT W 19.6 G 28.8 10.00 Overcast -- 54.0 46.4 77% 49 NA 29.80 M
5:55 pm CDT W 17.3 G 33.4 9.00 Overcast -- 59.0 48.2 68% 56 NA 29.72 M
4:55 pm CDT W 9.2 G 18.4 10.00 Overcast -- 63.0 51.8 68% 62 NA 29.67 M
3:55 pm CDT W 12.7 G 18.4 10.00 Overcast -- 64.0 50.0 60% NA NA 29.64 M
2:55 pm CDT W 15.0 10.00 Fair -- 68.0 53.6 60% NA NA 29.62 M
1:55 pm CDT W 16.1 10.00 Fair -- 70.0 55.4 60% NA NA 29.62 M
1:35 pm CDT W 11.5 G 18.4 10.00 A Few Clouds -- 70.0 57.2 64% NA NA 29.64 M
12:55 pm CDT W 13.8 G 23.0 10.00 Partly Cloudy -- 70.0 57.2 64% NA NA 29.66 M
11:55 am CDT W 16.1 G 24.2 10.00 Partly Cloudy -- 72.0 62.6 73% NA NA 29.66 M
10:55 am CDT SW 12.7 G 18.4 10.00 Mostly Cloudy -- 73.0 66.2 78% NA NA 29.66 M
10:35 am CDT SW 17.3 G 28.8 10.00 Overcast -- 72.0 66.2 83% NA NA 29.66 M
9:55 am CDT W 16.1 G 24.2 10.00 Overcast -- 72.0 68.0 88% NA NA 29.66 M
9:35 am CDT SW 10.4 G 24.2 9.00 Mostly Cloudy -- 70.0 68.0 94% NA NA 29.66 M
8:55 am CDT SW 9.2 G 16.1 1.50 Fog/Mist -- 70.0 68.0 94% NA NA 29.65 M
8:35 am CDT SW 6.9 4.00 Fog/Mist -- 70.0 68.0 94% NA NA 29.64 M
7:55 am CDT SW 8.1 1.00 Fog/Mist -- 68.0 68.0 100% NA NA 29.63 M
6:55 am CDT SW 8.1 5.00 Fog/Mist -- 68.0 68.0 100% NA NA 29.59 M
5:55 am CDT W 5.8 10.00 Overcast -- 68.0 68.0 100% NA NA 29.53 M
4:55 am CDT 6.9 G 12.7 3.00 Fog/Mist -- 68.0 68.0 100% NA NA 29.44 M
3:55 am CDT E 8.1 G 15.0 5.00 Fog/Mist -- 70.0 68.0 94% NA NA 29.42 M
2:55 am CDT E 8.1 3.00 Fog/Mist -- 70.0 68.0 94% NA NA 29.49 M
1:15 am CDT S 16.1 G 26.5 5.00 Fog/Mist -- 72.0 68.0 88% NA NA 29.64 M
12:55 am CDT S 11.5 G 26.5 5.00 Fog/Mist -- 72.0 68.0 88% NA NA 29.66 M

Regional Weather Observation


Tullahoma Regional Airport/William Northern Field, TN (KTHA)

Overcast
50.0 F

Huntsville, Madison County Executive Airport, AL (KMDQ)

Overcast
49.0 F

Scottsboro Municipal Airport, AL (K4A6)

Overcast
52.0 F

Chattanooga, Lovell Field, TN (KCHA)

Light Rain
57.0 F

Redstone Airfield, AL (KHUA)

Overcast
49.0 F

Huntsville, Huntsville International / Jones Field, AL (KHSV)

Mostly Cloudy
49.0 F